Погода в Куэнке

Испания     40°04′11″N   2°08′15″W
темп.,
°C
ветер,
м/с
пор.,
м/с
влажн.,
%
обл.,
%
осадки,
мм/ч
давл.,
гПа
погр.,
м
28 сентября, вт
вт2823:00+16с115118 0.0 102311
02:00+15в115487 0.0 102211
05:00+14в225434 0.0 102211
08:00+13в225858 0.0 102211
11:00+19юв4649100 0.0 1022578
14:00+23ю6634100 0.0 10201704
17:00+24юз6623100 0.0 10181996
20:00+19зсз36430 0.0 102085
29 сентября, ср
ср2923:00+16ссз225413 0.0 102211
02:00+15ссв11560 0.0 102311
05:00+13ссв21605 0.0 102310
08:00+13ссв11655 0.0 102410
11:00+18всв11495 0.0 1024388
14:00+22зсз213597 0.0 10231611
17:00+24сз32285 0.0 10221987
20:00+19ссз34355 0.0 102351
30 сентября, чт
чт3023:00+16вюв335067 0.0 102531
02:00+14вюв4954100 0.0 1026236
05:00+13в2259100 0.0 102546
08:00+13в2268100 0.0 102520
11:00+17юв4556100 0.0 1025638
14:00+21ююв4346100 0.0 10231347
17:00+23ююз33380 0.0 10211878
20:00+20сз00450 0.0 102111
1 октября, пт
пт123:00+15юв34790 0.0 102483
02:00+14вюв249667 0.0 1023112
05:00+16юв4683100 0.0 1022532
08:00+16юв4579100 0.0 1022604
11:00+18ююв446577 0.0 1022654
14:00+22ююз444559 0.0 10201660
17:00+24зюз44337 0.0 10182332
20:00+20зсз364188 0.0 1019106
2 октября, сб
сб223:00+17ссз1150100 0.0 102011
02:00+16ссв1156100 0.0 101911
05:00+16в1158100 0.0 101811
08:00+14вюв116313 0.0 101810
11:00+19ю12475 0.0 1018449
14:00+24зюз44315 0.0 10161943
17:00+24з55284 0.0 10142192
20:00+20з34383 0.0 101562